Hourly Weather Roundup
Issued by NWS Central Illinois

Home | Current Version | Previous Version | Text Only | Print | Product List | Glossary On
Versions: 1 2 3 4 5 6 7 8 9 10 11 12 13 14 15 16 17 18 19 20 21 22 23 24 25 26 27 28 29 30 31 32 33 34 35 36 37 38 39 40 41 42 43 44 45 46 47 48 49 50
723
NZUS43 KILX 251210
HWRILX

Area Weather Roundup
National Weather Service Lincoln IL
700 AM CDT SUN JUN 25 2017

NOTE:  "FAIR" indicates few or no clouds below 12,000 feet, with
       no sigificant weather and/or obstructions to visibility.


CITY           SKY/WX    TMP DP  RH WIND       PRES   REMARKS
Bloomington    SUNNY     59  49  69 W5        30.17R
6HR MIN TEMP:  54; 6HR MAX TEMP:  61;

Champaign      SUNNY     57  49  74 W5        30.16R
6HR MIN TEMP:  52; 6HR MAX TEMP:  58;

Danville       MOSUNNY   58  49  72 W6        30.13R
6HR MIN TEMP:  53; 6HR MAX TEMP:  58;

Decatur        MOSUNNY   61  49  64 W7        30.17R
6HR MIN TEMP:  56; 6HR MAX TEMP:  61;

Effingham      MOSUNNY   61  52  72 NW8       30.21R
6HR MIN TEMP:  55; 6HR MAX TEMP:  61;

Flora          MOSUNNY   64  50  59 SW8       30.19R
6HR MIN TEMP:  54; 6HR MAX TEMP:  64;

Galesburg      MOSUNNY   55  50  83 W6        30.18R
6HR MIN TEMP:  48; 6HR MAX TEMP:  55;

Jacksonville   SUNNY     60  51  72 CALM      30.18S
Lacon          SUNNY     58  51  80 SW5       30.15R
6HR MIN TEMP:  50; 6HR MAX TEMP:  60;

Lawrenceville  MOSUNNY   61  54  77 SW5       30.17R
6HR MIN TEMP:  54; 6HR MAX TEMP:  61;

Litchfield     SUNNY     59  51  74 W6        30.19S
6HR MIN TEMP:  53; 6HR MAX TEMP:  59;

$$


CITY           SKY/WX    TMP DP  RH WIND       PRES   REMARKS
Lincoln        MOSUNNY   60  51  72 W3        30.17R
6HR MIN TEMP:  57; 6HR MAX TEMP:  63;

Macomb         SUNNY     55  52  90 W6        30.20S
6HR MIN TEMP:  50; 6HR MAX TEMP:  57;

Mattoon        MOSUNNY   62  50  64 W6        30.15S
6HR MIN TEMP:  56; 6HR MAX TEMP:  62;

Mt Carmel AP   MOSUNNY   60  53  76 W8        30.17S
6HR MIN TEMP:  53; 6HR MAX TEMP:  60;

Olney-Noble AP MOSUNNY   60  53  77 CALM      30.19R
Paris AP       MOSUNNY   58  52  79 W7        30.17R
6HR MIN TEMP:  52; 6HR MAX TEMP:  58;

Peoria         SUNNY     57  50  77 W5        30.17R
6HR MIN TEMP:  53; 6HR MAX TEMP:  62;

Pontiac        SUNNY     58  53  84 W7        30.15S
6HR MIN TEMP:  54; 6HR MAX TEMP:  62;

Rantoul        SUNNY     59  51  74 W5        30.16R
6HR MIN TEMP:  55; 6HR MAX TEMP:  60;

Robinson       MOSUNNY   61  50  68 SW12      30.17R
6HR MIN TEMP:  53; 6HR MAX TEMP:  61;

Springfield    MOSUNNY   59  53  80 CALM      30.17R
6HR MIN TEMP:  55; 6HR MAX TEMP:  63;

Taylorville    SUNNY     59  50  71 W9        30.18S
6HR MIN TEMP:  54; 6HR MAX TEMP:  60;

$$

...REGIONAL REPORTS...


CITY           SKY/WX    TMP DP  RH WIND       PRES   REMARKS
Chicago O`Hare MOSUNNY   57  48  72 W10       30.08R
Kankakee       NOT AVBL
Moline         SUNNY     58  53  84 W3        30.15R
Mount Sterling SUNNY     57  50  76 W5        30.18R
Mount Vernon   MOSUNNY   59  56  89 SW3       30.20R
Pittsfield     SUNNY     59  52  77 W3        30.20R
Quincy         MOSUNNY   59  52  77 W5        30.19R
Rockford       SUNNY     56  50  80 W9        30.13R
$$


CITY           SKY/WX    TMP DP  RH WIND       PRES   REMARKS
Burlington     MOSUNNY   57  47  69 NW7       30.18R
Cedar Rapids   SUNNY     52  49  89 W9        30.17R
Des Moines     MOSUNNY   55  45  68 NW9       30.23R
Kirksville     SUNNY     57  52  83 W3        30.23R
Ottumwa        MOSUNNY   52  48  86 W8        30.21R
St Louis       MOSUNNY   67  48  50 W10       30.20R
$$


CITY           SKY/WX    TMP DP  RH WIND       PRES   REMARKS
Terre Haute    MOSUNNY   60  50  69 W5        30.16R
Evansville     MOSUNNY   61  54  77 SW3       30.19R
Indianapolis   MOSUNNY   60  49  66 W12       30.14R
Lafayette      SUNNY     56  51  84 W6        30.13R
Madison        MOSUNNY   53  49  86 W7        30.06S
Milwaukee      MOSUNNY   57  49  74 W12       30.04R
$$






USA.gov is the U.S. government's official web portal to all federal, state and local government web resources and services.